Watsonville, CA

1:41 PM PST on December 16, 2017 (GMT -0800)
Watsonville Municipal

Weather History for KWVI - December, 2012

Change the Weather History Date:

Saturday, December 1, 2012

  Actual Average Record
Temperature  
Mean Temperature 60 °F 51 °F  
Max Temperature 64 °F 62 °F 75 °F (2013)
Min Temperature 56 °F 41 °F 31 °F (2004)
Degree Days  
Heating Degree Days 5    
Month to date heating degree days 5  
Since 1 July heating degree days 746  
Cooling Degree Days 0    
Month to date cooling degree days 0  
Year to date cooling degree days 79  
Growing Degree Days 10 (Base 50)    
Moisture  
Dew Point 57 °F    
Average Humidity 92    
Maximum Humidity 100    
Minimum Humidity 84    
Precipitation  
Precipitation 0.61 in - 2.00 in (1973)
Month to date precipitation 0.61  
Year to date precipitation 17.45  
Since 1 July precipitation 5.52  
Sea Level Pressure  
Sea Level Pressure 30.04 in    
Wind  
Wind Speed 4 mph (SSW)    
Max Wind Speed 17 mph    
Max Gust Speed 22 mph    
Visibility 6 miles    
Events Rain    
T = Trace of Precipitation, MM = Missing Value Source: NWS Daily Summary

Daily Weather History Graph

Daily Weather History Graph

Search for Another Location

Airport or City:

Trip Planner

Search our weather history database for the weather conditions in past years. The results will help you decide how hot, cold, wet, or windy it might be!

Date:

Astronomy

Dec. 01, 2012 Rise Set
Actual Time 7:02 AM PST 4:50 PM PST
Civil Twilight 6:33 AM PST 5:19 PM PST
Nautical Twilight 6:01 AM PST 5:51 PM PST
Astronomical Twilight 5:30 AM PST 6:22 PM PST
Moon 7:44 PM PST (12/1) 9:19 AM PST (12/1)
Length of Visible Light 10h 45m
Length of Day
9h 48m
Waning Gibbous, 91% of the Moon is Illuminated
Dec 1
Waning Gibbous
Dec 6
Last Quarter
Dec 13
New
Dec 19
First Quarter
Dec 28
Full

Hourly Weather History & Observations

Time (PST) Temp. Dew Point Humidity Pressure Visibility Wind Dir Wind Speed Gust Speed Precip Events Conditions
12:53 AM 55.9 °F 54.0 °F 93% 30.06 in 9.0 mi Calm Calm - N/A   Overcast
1:53 AM 55.9 °F 54.0 °F 93% 30.06 in 10.0 mi Calm Calm - N/A   Overcast
2:53 AM 55.9 °F 54.0 °F 93% 30.05 in 9.0 mi NE 3.5 mph - 0.00 in   Overcast
3:39 AM 55.4 °F 55.4 °F 100% 30.05 in 4.0 mi Calm Calm - 0.02 in Rain Light Rain
4:53 AM 55.9 °F 55.9 °F 100% 30.04 in 2.5 mi Calm Calm - 0.06 in Rain Rain
5:07 AM 55.4 °F 55.4 °F 100% 30.03 in 8.0 mi North 3.5 mph - 0.02 in Rain Light Rain
5:32 AM 55.4 °F 55.4 °F 100% 30.03 in 10.0 mi Calm Calm - 0.03 in Rain Light Rain
6:53 AM 57.0 °F 57.0 °F 100% 30.04 in 5.0 mi Calm Calm - 0.02 in Rain Light Rain
7:16 AM 57.2 °F 57.2 °F 100% 30.03 in 2.5 mi Calm Calm - 0.05 in Rain Rain
7:39 AM 57.2 °F 57.2 °F 100% 30.04 in 1.5 mi Calm Calm - 0.14 in Rain Rain
7:53 AM 57.0 °F 57.0 °F 100% 30.04 in 1.8 mi NNW 3.5 mph - 0.17 in Rain Rain
8:01 AM 57.2 °F 57.2 °F 100% 30.04 in 3.0 mi WNW 3.5 mph - 0.00 in Rain Light Rain
8:12 AM 57.2 °F 57.2 °F 100% 30.05 in 1.8 mi NW 3.5 mph - 0.01 in Rain Light Rain
8:17 AM 57.2 °F 57.2 °F 100% 30.05 in 1.2 mi NW 3.5 mph - 0.02 in Rain Light Rain
8:26 AM 57.2 °F 57.2 °F 100% 30.06 in 0.8 mi WNW 3.5 mph - 0.06 in Rain Heavy Rain
8:40 AM 57.2 °F - N/A% 30.06 in 1.0 mi Variable 4.6 mph - 0.11 in Rain Rain
8:53 AM 57.9 °F 57.9 °F 100% 30.07 in 0.8 mi SSE 4.6 mph - 0.17 in Rain Heavy Rain
9:06 AM 57.2 °F 57.2 °F 100% 30.08 in 1.0 mi SSE 6.9 mph - 0.06 in Rain Heavy Rain
9:20 AM 57.2 °F 57.2 °F 100% 30.08 in 1.5 mi SSE 6.9 mph - 0.13 in Rain Rain
9:25 AM 59.0 °F 59.0 °F 100% 30.08 in 3.0 mi SSE 12.7 mph 16.1 mph 0.13 in Rain Light Rain
9:50 AM 59.0 °F 59.0 °F 100% 30.09 in 10.0 mi SSE 12.7 mph - 0.13 in   Overcast
9:53 AM 60.1 °F 59.0 °F 96% 30.09 in 10.0 mi SSE 10.4 mph - 0.13 in   Overcast
10:53 AM 62.1 °F 62.1 °F 100% 30.09 in 10.0 mi South 8.1 mph - N/A   Overcast
11:53 AM 62.1 °F 61.0 °F 96% 30.07 in 10.0 mi South 10.4 mph 19.6 mph 0.00 in Rain Light Rain
12:27 PM 62.6 °F 57.2 °F 82% 30.05 in 10.0 mi South 13.8 mph - 0.00 in   Mostly Cloudy
12:46 PM 62.6 °F 57.2 °F 82% 30.05 in 10.0 mi South 15.0 mph 20.7 mph 0.00 in   Mostly Cloudy
12:53 PM 63.0 °F 59.0 °F 87% 30.05 in 10.0 mi SSW 12.7 mph - 0.00 in   Mostly Cloudy
1:28 PM 64.4 °F 59.0 °F 83% 30.04 in 10.0 mi South 12.7 mph - N/A   Scattered Clouds
1:53 PM 62.1 °F 57.9 °F 86% 30.04 in 10.0 mi SSW 11.5 mph - N/A   Mostly Cloudy
2:53 PM 62.1 °F 57.0 °F 84% 30.04 in 10.0 mi SSW 6.9 mph - N/A   Overcast
3:24 PM 62.6 °F 57.2 °F 82% 30.04 in 10.0 mi SSW 6.9 mph - N/A   Overcast
3:53 PM 61.0 °F 55.9 °F 83% 30.03 in 10.0 mi South 5.8 mph - N/A   Mostly Cloudy
4:05 PM 60.8 °F 55.4 °F 82% 30.03 in 10.0 mi SSW 4.6 mph - N/A   Overcast
4:53 PM 60.1 °F 55.9 °F 86% 30.03 in 10.0 mi SSW 6.9 mph - 0.00 in Rain Light Rain
5:53 PM 57.9 °F 55.9 °F 93% 30.01 in 5.0 mi South 6.9 mph - 0.00 in Rain Light Rain
6:53 PM 57.9 °F 55.9 °F 93% 30.00 in 9.0 mi Calm Calm - 0.01 in Rain Light Rain
7:09 PM 57.2 °F 55.4 °F 94% 30.00 in 7.0 mi North 3.5 mph - 0.01 in Rain Light Rain
7:36 PM 57.2 °F 57.2 °F 100% 30.00 in 3.0 mi North 3.5 mph - 0.04 in Rain Light Rain
7:53 PM 57.9 °F 57.9 °F 100% 30.00 in 3.0 mi North 3.5 mph - 0.06 in Rain Rain
8:01 PM 57.2 °F 57.2 °F 100% 30.00 in 2.5 mi North 3.5 mph - 0.02 in Rain Rain
8:08 PM 57.2 °F 57.2 °F 100% 30.00 in 5.0 mi North 3.5 mph - 0.02 in Rain Light Rain
8:27 PM 57.2 °F 57.2 °F 100% 29.99 in 7.0 mi North 3.5 mph - 0.03 in Rain Light Rain
8:53 PM 57.0 °F 57.0 °F 100% 29.99 in 6.0 mi NE 4.6 mph - 0.04 in Rain Light Rain
9:19 PM 57.2 °F 57.2 °F 100% 30.00 in 4.0 mi Calm Calm - 0.01 in Rain Light Rain
9:28 PM 57.2 °F 57.2 °F 100% 30.00 in 4.0 mi Calm Calm - 0.02 in Rain Rain
9:53 PM 57.0 °F 57.0 °F 100% 30.00 in 2.5 mi Calm Calm - 0.10 in Rain Rain
10:00 PM 57.2 °F 57.2 °F 100% 29.99 in 4.0 mi Calm Calm - 0.01 in Rain Light Rain
10:53 PM 57.0 °F 57.0 °F 100% 29.99 in 4.0 mi Calm Calm - 0.04 in Rain Light Rain
11:53 PM 57.0 °F 57.0 °F 100% 29.98 in 10.0 mi Calm Calm - 0.01 in   Overcast